Brno, Czech Republic

6:06 PM CEST on July 24, 2017 (GMT +0200)
Turany

Weather History for LKTB - December, 2012

Change the Weather History Date:

Sunday, December 9, 2012

  Actual Average Record
Temperature  
Mean Temperature 20 °F -  
Max Temperature 27 °F 34 °F - ()
Min Temperature 12 °F 26 °F - ()
Degree Days  
Heating Degree Days 46    
Moisture  
Dew Point 14 °F    
Average Humidity 79    
Maximum Humidity 93    
Minimum Humidity 45    
Precipitation  
Precipitation 0.08 in 0.03 in - ()
Sea Level Pressure  
Sea Level Pressure 30.04 in    
Wind  
Wind Speed 5 mph ()    
Max Wind Speed 13 mph    
Max Gust Speed -    
Visibility 3.9 miles    
Events Snow    
T = Trace of Precipitation, MM = Missing Value Source: Averaged Metar Reports

Daily Weather History Graph

Daily Weather History Graph

Search for Another Location

Airport or City:

Trip Planner

Search our weather history database for the weather conditions in past years. The results will help you decide how hot, cold, wet, or windy it might be!

Date:

Astronomy

Dec. 09, 2012 Rise Set
Actual Time 7:36 AM CET 3:55 PM CET
Civil Twilight 6:58 AM CET 4:32 PM CET
Nautical Twilight 6:18 AM CET 5:12 PM CET
Astronomical Twilight 5:39 AM CET 5:51 PM CET
Moon 2:29 AM CET (12/9) 1:06 PM CET (12/9)
Length of Visible Light 9h 33m
Length of Day
8h 19m
Waning Crescent, 21% of the Moon is Illuminated
Dec 9
Waning Crescent
Dec 13
New
Dec 20
First Quarter
Dec 28
Full
Jan 5
Last Quarter

Hourly Weather History & Observations

Time (CET) Temp. Windchill Dew Point Humidity Pressure Visibility Wind Dir Wind Speed Gust Speed Precip Events Conditions
12:00 AM 15.8 °F 5.1 °F 12.2 °F 86% 30.18 in - NW 8.1 mph - N/A   Clear
12:30 AM 15.8 °F 10.2 °F 12.2 °F 86% 30.18 in - Variable 3.5 mph - N/A   Clear
1:00 AM 16 °F - 10 °F 65% 30.27 in 6 mi North 2.2 mph - -  
1:00 AM 15.8 °F 10.2 °F 12.2 °F 86% 30.18 in - NW 3.5 mph - N/A   Clear
1:30 AM 15.8 °F - 10.4 °F 79% 30.18 in - Variable 2.3 mph - N/A   Clear
2:00 AM 14.0 °F - 10.4 °F 86% 30.18 in - Variable 1.2 mph - N/A   Clear
2:30 AM 12.2 °F 0.7 °F 8.6 °F 85% 30.18 in - WNW 8.1 mph - N/A   Clear
3:00 AM 14.0 °F 8.2 °F 10.4 °F 86% 30.18 in - Variable 3.5 mph - N/A   Clear
3:30 AM 14.0 °F 2.0 °F 10.4 °F 86% 30.15 in - WNW 9.2 mph - N/A   Clear
4:00 AM 14.0 °F 2.0 °F 10.4 °F 86% 30.15 in - WNW 9.2 mph - N/A   Clear
4:30 AM 12.2 °F -2.5 °F 8.6 °F 85% 30.15 in - WNW 12.7 mph - N/A   Clear
5:00 AM 14.0 °F 1.2 °F 8.6 °F 79% 30.15 in - NW 10.4 mph - N/A   Clear
5:30 AM 12.2 °F -0.2 °F 8.6 °F 85% 30.15 in - WNW 9.2 mph - N/A   Clear
6:00 AM 14.0 °F 5.1 °F 8.6 °F 79% 30.15 in - WNW 5.8 mph - N/A   Clear
6:30 AM 14.0 °F 1.2 °F 10.4 °F 86% 30.15 in - WNW 10.4 mph - N/A   Clear
7:00 AM 13 °F - 7 °F 69% 30.25 in 7 mi WNW 8.9 mph - -   Scattered Clouds
7:00 AM 12.2 °F 0.7 °F 8.6 °F 85% 30.15 in - WNW 8.1 mph - N/A   Clear
7:30 AM 14.0 °F 2.0 °F 8.6 °F 79% 30.15 in - WNW 9.2 mph - N/A   Clear
7:41 AM 12.2 °F 1.7 °F 8.6 °F 85% 30.15 in - West 6.9 mph - N/A   Clear
8:00 AM 12.2 °F 4.3 °F 8.6 °F 85% 30.15 in - West 4.6 mph - N/A   Clear
8:30 AM 14.0 °F - 10.4 °F 86% 30.15 in - WNW 2.3 mph - N/A   Clear
9:00 AM 14.0 °F 3.9 °F 8.6 °F 79% 30.15 in - WNW 6.9 mph - N/A   Clear
9:30 AM 15.8 °F 7.2 °F 10.4 °F 79% 30.15 in - WNW 5.8 mph - N/A   Clear
10:00 AM 17.6 °F 12.3 °F 12.2 °F 79% 30.12 in - WNW 3.5 mph - N/A   Clear
10:30 AM 19.4 °F 14.3 °F 14.0 °F 80% 30.12 in - WNW 3.5 mph - N/A   Clear
11:00 AM 21.2 °F 11.7 °F 14.0 °F 74% 30.12 in - WNW 8.1 mph - N/A   Clear
11:30 AM 23.0 °F 13.1 °F 14.0 °F 68% 30.09 in - WNW 9.2 mph - N/A   Clear
12:00 PM 23.0 °F 13.1 °F 14.0 °F 68% 30.09 in - WNW 9.2 mph - N/A   Clear
12:30 PM 24.8 °F 16.1 °F 15.8 °F 69% 30.09 in - WNW 8.1 mph - N/A   Clear
1:00 PM 26 °F - 13 °F 45% 30.13 in 6 mi WNW 2.2 mph - -  
1:00 PM 24.8 °F 20.5 °F 15.8 °F 69% 30.06 in - WNW 3.5 mph - N/A   Clear
1:30 PM 26.6 °F 21.2 °F 15.8 °F 64% 30.04 in - SW 4.6 mph - N/A   Clear
2:00 PM 24.8 °F 19.1 °F 15.8 °F 69% 30.04 in - SSW 4.6 mph - N/A   Clear
2:30 PM 26.6 °F 21.2 °F 15.8 °F 64% 30.01 in - South 4.6 mph - N/A   Clear
3:00 PM 24.8 °F 20.5 °F 15.8 °F 69% 30.01 in - SSW 3.5 mph - N/A   Clear
3:30 PM 23.0 °F 15.8 °F 15.8 °F 74% 30.01 in - South 5.8 mph - N/A   Clear
4:00 PM 23.0 °F - 14.0 °F 68% 29.98 in - Variable 1.2 mph - N/A   Clear
4:30 PM 21.2 °F - 14.0 °F 74% 29.95 in - Calm Calm - N/A   Clear
5:00 PM 19.4 °F 14.3 °F 12.2 °F 74% 29.95 in - NE 3.5 mph - N/A   Clear
5:30 PM 19.4 °F 14.3 °F 14.0 °F 80% 29.95 in - ENE 3.5 mph - N/A   Clear
6:00 PM 21.2 °F 14.9 °F 14.0 °F 74% 29.92 in - ENE 4.6 mph - N/A   Clear
6:30 PM 21.2 °F 16.4 °F 14.0 °F 74% 29.92 in 6.2 mi ENE 3.5 mph - N/A   Partly Cloudy
7:00 PM 22 °F - 14 °F 60% 29.98 in 9 mi SE 4.5 mph - -   Overcast
7:00 PM 21.2 °F 16.4 °F 15.8 °F 80% 29.89 in 6.2 mi SE 3.5 mph - N/A   Mostly Cloudy
7:09 PM 23.0 °F 17.0 °F 15.8 °F 74% 29.89 in 6.2 mi SSE 4.6 mph - N/A Snow Light Snow
7:30 PM 23.0 °F 17.0 °F 15.8 °F 74% 29.89 in 6.2 mi South 4.6 mph - N/A Snow Light Snow
8:00 PM 23.0 °F 18.4 °F 17.6 °F 80% 29.89 in 6.2 mi South 3.5 mph - N/A Snow Light Snow
8:19 PM 23.0 °F 17.0 °F 17.6 °F 80% 29.86 in 3.1 mi South 4.6 mph - N/A Snow Light Snow
8:30 PM 23.0 °F 15.8 °F 17.6 °F 80% 29.86 in 1.9 mi South 5.8 mph - N/A Snow Snow
8:43 PM 23.0 °F 15.8 °F 19.4 °F 86% 29.86 in 1.2 mi South 5.8 mph - N/A Snow Snow
9:00 PM 23.0 °F 17.0 °F 19.4 °F 86% 29.86 in 1.2 mi South 4.6 mph - N/A Snow Snow
9:11 PM 23.0 °F 17.0 °F 21.2 °F 93% 29.86 in 1.1 mi South 4.6 mph - N/A Snow Snow
9:30 PM 23.0 °F 18.4 °F 21.2 °F 93% 29.83 in 1.2 mi SSE 3.5 mph - N/A Snow Snow
10:00 PM 24.8 °F 19.1 °F 21.2 °F 86% 29.83 in 1.9 mi SSE 4.6 mph - N/A Snow Light Snow
10:10 PM 24.8 °F 19.1 °F 21.2 °F 86% 29.83 in 1.9 mi SSE 4.6 mph - N/A Snow Light Snow
10:30 PM 24.8 °F 20.5 °F 23.0 °F 93% 29.83 in 1.9 mi SE 3.5 mph - N/A Snow Light Snow
11:00 PM 24.8 °F 20.5 °F 23.0 °F 93% 29.80 in 2.5 mi South 3.5 mph - N/A Snow Light Snow
11:30 PM 24.8 °F 19.1 °F 23.0 °F 93% 29.80 in 1.9 mi SE 4.6 mph - N/A Snow Light Snow